Weather History for Edwards AFB, CA

Change the Weather History Date:

Sunday, February 17, 2013

  Actual Average Record
Temperature  
Mean Temperature 49 °F -  
Max Temperature 70 °F 58 °F 77 °F (2014)
Min Temperature 28 °F 34 °F 22 °F (2012)
Degree Days  
Heating Degree Days 16    
Moisture  
Dew Point 20 °F    
Average Humidity 32    
Maximum Humidity 67    
Minimum Humidity 13    
Precipitation  
Precipitation 0.00 in - - ()
Sea Level Pressure  
Sea Level Pressure 29.92 in    
Wind  
Wind Speed 10 mph (WSW)    
Max Wind Speed 23 mph    
Max Gust Speed 30 mph    
Visibility 10 miles    
Events      
Averages and records for this station are not official NWS values.
T = Trace of Precipitation, MM = Missing Value Source: NWS Daily Summary

Daily Weather History Graph

Daily Weather History Graph

Search for Another Location

Airport:

Trip Planner

Search our weather history database for the weather conditions in past years. The results will help you decide how hot, cold, wet, or windy it might be!

Date:

Astronomy

Feb. 17, 2013 Rise Set
Actual Time 6:34 AM PST 5:36 PM PST
Civil Twilight 6:09 AM PST 6:02 PM PST
Nautical Twilight 5:39 AM PST 6:32 PM PST
Astronomical Twilight 5:10 AM PST 7:01 PM PST
Moon 10:49 AM PST (2/17) 12:18 AM PST (2/17)
Length of Visible Light 11h 53m
Length of Day
11h 01m
Waxing Crescent, 50% of the Moon is Illuminated
Feb 17
Waxing Crescent
Feb 17
First Quarter
Feb 25
Full
Mar 4
Last Quarter
Mar 11
New

Hourly Weather History & Observations

Time (PST) Temp. Windchill Dew Point Humidity Pressure Visibility Wind Dir Wind Speed Gust Speed Precip Events Conditions
12:58 AM 33.3 °F 27.9 °F 10.4 °F 39% 30.00 in 10.0 mi SW 5.8 mph - N/A   Clear
1:58 AM 31.8 °F - 11.8 °F 44% 29.99 in 10.0 mi WSW 2.3 mph - N/A   Clear
2:58 AM 33.6 °F 30.6 °F 14.0 °F 45% 29.95 in 10.0 mi SW 3.5 mph - N/A   Clear
3:58 AM 29.7 °F - 9.1 °F 42% 29.96 in 10.0 mi Calm Calm - N/A   Clear
4:58 AM 28.4 °F - 11.8 °F 50% 29.95 in 10.0 mi SSE 1.2 mph - N/A   Clear
5:58 AM 28.4 °F 22.2 °F 13.6 °F 54% 29.96 in 10.0 mi SSW 5.8 mph - N/A   Clear
6:58 AM 28.9 °F 19.8 °F 12.0 °F 49% 29.98 in 10.0 mi SW 10.4 mph - N/A   Clear
7:58 AM 40.3 °F 34.4 °F 18.9 °F 42% 29.96 in 10.0 mi SSW 9.2 mph - N/A   Clear
8:58 AM 48.4 °F - 23.5 °F 38% 29.96 in 50.0 mi SW 13.8 mph - N/A   Clear
9:58 AM 59.0 °F - 22.1 °F 24% 29.93 in 50.0 mi West 17.3 mph 18.4 mph N/A   Clear
10:10 AM 62.6 °F - 23.0 °F 22% 29.94 in 50.0 mi West 20.7 mph 26.5 mph N/A   Clear
10:24 AM 64.4 °F - 21.2 °F 19% 29.94 in 50.0 mi WSW 15.0 mph 25.3 mph N/A   Clear
10:43 AM 64.4 °F - 23.0 °F 21% 29.93 in 50.0 mi SW 12.7 mph 21.9 mph N/A   Clear
10:52 AM 66.2 °F - 21.2 °F 18% 29.93 in 50.0 mi West 18.4 mph 23.0 mph N/A   Clear
10:58 AM 66.0 °F - 17.4 °F 15% 29.92 in 50.0 mi West 18.4 mph 23.0 mph N/A   Clear
11:58 AM 67.6 °F - 23.0 °F 18% 29.90 in 50.0 mi West 15.0 mph 23.0 mph N/A   Clear
12:58 PM 69.8 °F - 19.6 °F 15% 29.87 in 50.0 mi NW 12.7 mph 23.0 mph N/A   Clear
1:02 PM 69.8 °F - 15.8 °F 13% 29.86 in 50.0 mi WNW 18.4 mph 29.9 mph N/A   Clear
1:04 PM 69.8 °F - 17.6 °F 14% 29.87 in 50.0 mi West 15.0 mph 29.9 mph N/A   Clear
1:58 PM 70.2 °F - 20.5 °F 15% 29.85 in 50.0 mi West 19.6 mph 27.6 mph N/A   Clear
2:58 PM 69.4 °F - 18.7 °F 14% 29.85 in 40.0 mi West 19.6 mph - N/A   Clear
3:58 PM 67.3 °F - 19.9 °F 16% 29.84 in 40.0 mi West 23.0 mph - N/A   Clear
4:58 PM 64.6 °F - 19.2 °F 18% 29.86 in 10.0 mi West 19.6 mph - N/A   Clear
5:58 PM 59.9 °F - 21.2 °F 22% 29.89 in 10.0 mi West 16.1 mph - N/A   Clear
6:58 PM 54.7 °F - 24.3 °F 31% 29.91 in 10.0 mi WSW 12.7 mph - N/A   Clear
7:58 PM 52.5 °F - 25.0 °F 34% 29.93 in 10.0 mi West 16.1 mph - N/A   Clear
8:58 PM 49.6 °F - 29.5 °F 46% 29.94 in 10.0 mi WSW 13.8 mph - N/A   Clear
9:58 PM 47.5 °F - 33.1 °F 57% 29.93 in 10.0 mi SSW 6.9 mph - N/A   Clear
10:58 PM 45.1 °F 40.3 °F 33.8 °F 65% 29.93 in 10.0 mi SW 9.2 mph - N/A   Clear
11:58 PM 44.1 °F 39.0 °F 33.8 °F 67% 29.95 in 10.0 mi South 9.2 mph - N/A   Clear